Theta_e
335 335 335 335 335 334 333 333 334 334 334 335 335 334 335 336 336 336 335 334 334 334 334 335 335 335 335 334 334 334 333 332 331 331 332 332 331 330 330 330 330 329 327 327 328 328 328 329 328 328 328 327 327 327 326 327 326 326 327 327 327 326 324
335 335 335 335 334 334 334 334 334 333 334 335 334 334 335 335 335 335 335 334 333 333 334 335 335 334 335 334 334 333 333 333 332 331 332 332 331 331 331 330 329 328 327 327 327 326 327 328 329 328 328 327 327 327 327 327 326 326 326 327 327 325 323
335 335 335 335 335 334 334 334 334 333 334 334 334 334 335 335 335 334 334 334 333 333 334 334 334 335 334 334 334 333 333 333 332 332 332 332 331 331 330 330 328 328 328 327 327 326 326 326 327 328 327 327 327 327 327 326 327 326 327 327 327 325 324
334 335 335 335 335 335 334 334 333 333 334 334 334 335 335 335 335 334 334 333 332 333 335 334 334 335 334 333 333 333 333 332 332 332 332 332 332 331 330 329 329 328 328 328 327 326 326 325 326 327 327 327 327 327 327 327 327 326 327 327 326 325 324
334 335 335 335 335 335 334 333 333 334 333 333 334 335 335 335 334 334 334 333 333 333 334 335 334 334 334 333 333 333 334 333 331 331 331 331 331 331 330 330 329 328 328 328 327 326 326 326 326 326 326 327 326 326 326 326 326 326 326 326 324 324 323
334 335 335 336 334 333 333 333 333 333 333 333 334 334 335 334 333 333 333 333 333 334 334 334 333 334 333 333 332 333 333 333 332 331 331 330 330 330 330 330 330 328 328 329 328 327 326 325 325 325 325 326 324 322 322 324 325 325 325 325 324 323 320
333 335 335 335 333 331 332 333 333 333 333 333 333 334 334 333 332 333 333 333 334 334 335 334 333 333 333 333 332 333 333 333 332 332 331 330 330 330 330 330 330 330 329 329 329 327 326 326 325 325 325 325 323 320 318 319 322 322 321 323 324 320 316
333 334 334 335 334 331 331 332 333 333 333 332 332 333 333 332 332 333 333 334 334 334 334 333 333 333 333 333 333 333 333 333 332 332 331 331 331 330 330 330 330 330 330 330 329 328 327 326 326 326 325 324 322 320 318 317 317 317 319 321 321 318 314
333 333 334 335 334 333 332 332 332 332 331 331 332 332 332 332 333 333 333 333 333 333 332 332 333 333 333 333 333 333 333 333 332 331 331 331 331 330 330 330 330 331 331 330 330 329 328 327 326 326 325 323 322 322 321 320 315 312 314 317 317 316 314
333 332 333 334 334 333 332 332 332 331 331 331 332 332 332 332 333 333 333 333 332 332 332 332 333 333 333 333 333 333 333 333 332 331 331 331 330 330 330 331 331 331 331 330 329 330 329 328 326 326 325 323 322 321 322 323 317 310 310 314 314 315 314
333 332 332 334 334 333 332 332 331 331 330 331 331 332 332 332 333 333 333 333 332 332 332 333 333 333 333 333 333 333 332 332 332 331 331 331 330 330 331 331 331 331 331 330 329 330 329 328 327 326 325 323 322 320 319 321 319 311 309 313 313 313 313
332 332 332 333 333 333 332 331 331 331 331 331 332 333 332 332 332 332 332 332 331 332 333 333 333 333 333 333 333 332 332 332 332 331 331 331 331 332 331 331 331 331 331 330 329 330 329 328 327 326 325 323 321 320 317 318 317 311 309 312 312 311 311
331 332 333 334 333 332 332 331 331 331 331 332 333 333 332 332 332 332 331 331 331 332 333 333 333 333 332 332 332 332 332 332 332 331 331 332 332 332 332 332 331 331 331 330 329 330 330 328 328 327 326 324 321 320 318 317 314 309 308 312 311 310 310
331 331 333 334 333 331 331 331 330 331 331 332 333 333 333 332 331 331 330 330 331 332 332 332 332 332 332 332 332 332 331 332 331 331 331 331 332 332 333 332 331 330 330 330 329 329 330 329 328 327 326 324 323 321 318 316 312 307 308 310 310 310 310
330 331 332 333 333 331 331 331 330 331 331 331 330 331 332 331 330 330 330 330 330 330 330 329 331 331 331 331 331 331 331 331 332 332 331 332 332 332 332 331 330 330 330 330 329 329 329 329 328 328 326 325 324 321 318 316 312 308 308 309 309 309 309
332 332 332 332 332 331 330 330 330 330 330 329 328 329 331 330 330 330 329 329 329 328 329 328 329 330 330 330 330 330 331 331 332 332 331 331 332 331 331 331 331 330 330 329 329 329 328 327 328 329 327 326 326 323 322 320 314 309 308 309 309 309 309
332 332 331 331 331 331 329 329 329 328 328 328 328 329 330 329 329 329 328 328 328 327 328 328 327 328 328 328 329 329 330 330 331 331 331 331 331 330 330 331 331 331 330 329 329 329 328 327 328 329 327 327 327 325 325 322 315 311 310 309 309 309 309
329 329 329 330 330 330 329 328 328 328 327 327 329 330 330 329 329 329 328 327 327 327 327 326 327 327 327 327 327 327 328 328 328 328 329 329 329 329 330 330 330 331 330 330 330 329 329 328 328 329 327 326 326 325 325 320 313 310 310 309 310 310 309
328 328 328 329 329 329 329 327 327 328 327 327 329 329 329 329 328 328 328 327 327 326 326 326 326 326 326 326 325 325 326 326 325 326 327 327 326 327 329 329 329 329 329 330 330 329 329 328 329 329 326 324 324 324 322 317 310 310 310 309 310 310 310
327 327 327 329 328 327 326 326 327 327 326 327 328 328 328 328 328 328 327 326 326 325 325 326 326 325 325 325 324 324 324 324 324 324 324 325 325 325 327 328 328 328 329 329 329 329 328 328 329 328 325 324 324 322 321 316 310 310 310 309 310 311 310
326 326 327 327 326 325 325 326 326 325 325 326 326 326 326 326 326 326 325 324 324 323 324 324 324 322 323 324 323 323 323 323 323 322 322 324 325 325 326 327 328 328 328 328 328 328 328 328 328 328 327 326 323 321 321 320 314 310 310 310 310 311 311
324 326 327 326 326 326 325 325 324 323 324 325 325 324 324 325 325 324 323 322 322 322 322 322 322 321 322 323 323 322 322 322 322 322 324 324 324 324 325 327 328 328 328 328 328 328 327 327 327 328 327 325 321 320 322 322 316 312 310 310 310 311 311
324 325 326 326 325 325 325 324 322 322 323 324 324 323 323 323 323 322 321 320 320 321 321 320 320 321 321 322 323 322 322 322 322 323 323 323 324 324 325 326 327 327 327 327 327 327 326 326 326 326 326 324 322 322 323 321 317 313 311 310 311 311 311
324 324 325 324 323 323 323 322 320 321 322 323 321 321 321 320 320 319 318 318 319 319 319 319 320 320 320 321 322 322 321 321 322 322 322 321 323 323 325 327 327 327 326 326 326 326 325 325 325 325 324 323 322 321 320 318 316 313 312 311 311 311 311
324 323 323 323 322 322 321 319 319 320 320 320 319 319 319 318 317 316 316 316 316 316 317 318 319 319 319 320 320 321 320 320 320 321 321 322 322 322 325 326 326 324 322 322 323 323 323 323 324 322 321 321 320 319 318 318 316 315 315 315 314 314 314
323 323 322 322 321 321 319 317 318 319 319 319 319 318 318 317 316 316 316 316 316 315 315 316 317 318 318 319 319 320 319 319 319 320 321 322 322 323 324 326 326 324 322 320 320 320 321 321 321 321 320 319 319 319 319 319 317 317 316 316 316 315 316
323 322 322 321 321 320 317 316 318 318 318 319 318 317 316 315 315 314 315 315 314 314 314 314 315 316 318 318 319 319 319 320 319 320 321 323 323 323 324 324 323 322 321 321 319 317 317 318 317 317 318 318 317 317 317 317 316 315 313 312 312 312 312
322 322 321 320 320 318 316 317 318 317 317 317 316 314 313 312 312 311 311 312 312 313 313 313 313 314 315 316 318 319 319 320 320 320 321 321 321 321 320 319 318 317 317 319 318 316 315 314 313 314 315 316 316 315 315 316 316 316 315 314 314 313 313
320 320 319 319 319 317 316 316 317 316 315 314 313 312 312 311 311 310 310 311 311 313 314 314 314 313 314 316 318 319 319 320 320 320 319 318 318 317 317 316 316 316 316 317 318 317 317 315 314 316 318 319 318 318 317 317 316 316 317 317 316 316 316
316 317 316 316 316 316 315 314 314 314 314 312 311 311 310 309 309 309 309 310 311 312 313 314 315 315 316 318 319 320 319 319 318 317 316 315 315 315 315 315 316 317 317 317 317 317 318 317 317 318 319 319 319 319 317 316 316 315 315 314 314 314 313
312 313 314 313 312 313 313 311 310 312 312 310 309 308 307 307 306 307 307 307 308 309 309 310 313 315 317 319 320 320 320 319 317 315 314 313 314 314 314 314 315 316 316 316 316 317 317 317 317 317 317 317 316 316 315 316 316 315 315 314 314 312 310
309 310 311 310 310 312 312 309 308 309 310 308 304 303 303 303 302 303 303 303 304 305 304 304 308 311 314 317 319 319 320 319 316 313 312 311 311 311 311 312 312 313 313 313 313 314 315 315 315 314 314 313 311 309 308 309 310 311 311 311 310 308 306
308 308 309 309 309 310 310 309 308 306 305 303 301 300 300 300 299 299 300 300 301 301 300 300 302 305 308 311 315 316 317 317 314 311 309 309 308 307 307 307 307 307 307 307 308 309 309 309 308 307 306 306 304 302 301 301 301 301 301 301 302 302 303
307 307 308 308 309 309 309 308 307 304 302 301 301 300 300 300 299 299 299 299 299 299 299 298 299 300 302 304 308 311 312 313 312 309 307 306 305 304 302 302 301 302 302 302 302 303 303 303 303 302 302 302 302 301 301 301 300 300 301 302 304 305 305
306 306 306 307 307 308 308 306 305 303 303 303 302 302 301 301 300 300 300 300 300 300 300 299 298 298 298 300 302 305 307 307 307 307 306 303 302 301 300 300 301 301 301 302 302 303 303 303 303 303 304 304 304 305 305 305 305 305 306 306 307 307 306
306 305 305 305 305 305 306 306 305 305 304 304 303 302 301 301 300 300 300 300 300 300 300 300 300 299 298 298 299 300 302 301 302 302 302 300 300 301 302 302 302 303 303 303 303 303 303 303 303 304 304 304 305 306 306 306 306 307 307 307 307 306 305
305 305 305 305 305 305 305 306 307 306 305 304 303 302 301 301 301 300 300 299 300 300 300 300 301 300 300 300 300 299 300 299 299 299 299 301 302 303 303 303 304 304 304 303 303 302 303 303 303 303 303 303 303 304 304 305 306 306 306 305 305 304 304
Wind_Speed
33 32 32 32 31 30 27 25 25 24 22 21 21 21 22 22 21 21 22 23 22 21 20 20 19 20 21 20 21 21 21 22 22 25 24 21 23 19 14 12 7 10 23 19 14 11 5 3 5 7 9 12 13 13 13 13 13 15 14 13 13 13 13
29 29 30 31 31 29 27 25 25 25 24 23 22 22 23 23 22 22 22 22 21 20 20 20 20 21 21 21 22 21 21 23 22 22 24 25 26 21 15 11 8 16 19 14 15 14 8 5 5 4 8 11 12 14 15 13 14 15 14 15 15 14 12
24 22 24 26 28 28 27 26 26 26 26 25 23 24 24 22 21 21 21 21 20 20 21 21 21 21 20 20 21 21 20 22 23 23 23 25 26 21 16 14 15 19 15 9 13 14 9 7 4 5 11 11 10 13 15 15 15 16 16 16 15 14 12
18 17 18 21 24 25 25 25 26 26 27 26 25 24 22 20 20 20 19 19 20 22 22 22 22 21 19 18 20 20 20 21 22 22 23 25 25 21 17 16 18 22 18 13 17 19 13 8 5 6 11 13 12 14 16 16 17 18 18 18 16 14 12
13 15 16 18 21 23 24 25 26 26 26 26 25 24 21 20 20 20 19 19 21 23 23 22 21 21 19 18 19 20 20 20 20 20 22 24 25 22 19 17 19 23 22 17 21 23 18 15 13 9 10 13 10 11 15 17 18 19 21 20 17 14 12
11 14 14 16 19 21 23 25 26 26 26 25 25 24 22 21 20 20 20 21 22 22 23 22 21 21 20 18 19 20 20 19 19 18 20 22 23 22 21 19 19 22 20 16 20 23 19 19 19 12 11 12 8 8 13 17 18 20 21 21 18 14 13
11 13 15 16 18 19 22 26 27 27 27 26 25 24 23 21 20 20 21 22 22 21 21 21 20 20 20 19 19 21 21 20 19 18 18 20 21 20 20 19 19 21 19 15 18 22 21 20 21 18 14 10 7 10 12 14 19 19 18 21 20 16 13
11 12 15 17 19 20 22 25 27 28 27 26 25 24 23 22 22 20 20 21 21 20 20 20 20 20 20 19 20 21 21 20 19 17 17 19 19 19 20 18 18 20 19 16 18 22 22 21 23 26 22 11 5 7 8 10 16 17 18 21 21 18 15
10 11 14 18 20 21 23 26 27 27 26 25 24 24 24 24 23 21 21 21 20 19 20 20 20 20 20 20 21 22 21 20 19 17 17 18 19 18 19 18 18 19 17 16 19 21 21 21 24 30 29 20 11 6 4 6 8 11 17 21 21 20 18
11 10 14 19 21 22 24 26 26 25 25 24 24 24 25 25 24 23 23 22 20 19 20 21 20 19 19 20 20 21 20 18 18 17 16 18 18 17 18 19 19 18 15 16 19 20 20 21 25 30 31 28 21 11 4 5 6 8 16 20 20 21 21
10 9 12 19 21 23 25 26 25 25 24 25 25 25 24 24 25 25 24 23 22 20 20 20 19 19 19 19 18 18 17 17 16 16 16 17 17 17 18 19 18 17 16 16 18 18 18 21 25 31 31 28 26 19 12 8 6 10 17 20 20 21 21
8 9 12 18 22 24 26 26 26 24 24 26 27 26 25 26 26 25 24 23 22 20 19 19 20 19 19 19 17 16 15 15 14 15 16 16 17 16 17 18 19 17 16 16 17 17 17 20 24 29 30 26 24 23 21 15 6 10 21 23 22 21 20
11 12 15 20 22 24 26 26 26 25 26 29 29 27 27 27 26 25 24 23 21 21 20 20 20 19 19 18 17 16 15 14 13 14 16 16 16 16 16 17 18 17 16 16 18 17 16 19 23 27 29 27 24 21 21 19 10 9 20 26 24 22 20
16 16 20 23 23 24 26 27 27 27 30 31 29 29 28 27 26 25 24 22 21 21 21 20 19 19 19 18 17 16 15 14 13 14 16 15 16 17 16 17 17 17 16 16 18 19 17 17 20 25 27 25 24 23 20 19 14 10 15 22 23 23 22
19 19 22 25 24 25 28 28 29 30 31 30 28 29 29 27 26 25 24 23 21 21 20 19 19 19 20 18 17 17 17 16 14 15 16 15 16 16 16 17 17 16 17 16 16 18 19 18 18 22 26 23 22 23 21 20 17 14 15 19 21 22 22
21 22 24 26 25 26 28 29 30 31 30 30 28 28 28 28 26 25 24 23 21 20 19 19 19 18 19 18 17 17 18 17 16 15 16 16 15 15 16 17 17 16 17 16 15 17 19 19 19 21 24 22 21 22 20 19 20 19 18 19 21 23 23
23 25 26 26 27 28 28 28 27 26 27 29 29 27 27 26 26 25 25 23 21 20 19 18 18 17 17 16 16 16 17 17 16 16 17 16 15 15 15 16 16 16 16 16 15 16 18 18 19 21 22 23 23 21 18 19 23 25 22 21 22 25 25
22 24 25 25 26 27 26 25 25 25 26 28 29 28 27 26 26 26 25 22 20 20 19 17 16 16 16 16 15 15 16 16 15 15 17 16 14 14 14 14 16 16 16 16 15 16 18 18 17 18 21 23 21 17 17 19 24 27 25 25 24 23 23
22 24 23 23 24 24 24 25 28 29 27 26 28 28 27 26 26 27 25 22 21 20 18 17 17 16 15 14 13 13 14 15 15 15 16 15 14 13 12 12 14 15 16 16 15 15 17 17 17 15 16 19 16 11 14 20 24 25 26 27 25 23 23
24 22 20 21 24 24 26 29 32 29 26 27 28 27 27 27 27 27 25 23 21 19 18 19 18 15 13 13 13 14 14 15 15 15 14 14 14 12 10 10 12 14 15 15 15 15 15 16 16 11 9 15 17 11 11 17 22 23 24 25 24 23 24
23 20 21 22 24 26 29 31 30 27 25 27 27 25 26 27 28 26 24 22 21 19 19 19 17 15 13 13 13 14 14 15 15 14 13 13 13 11 8 9 11 12 13 13 13 13 14 15 16 11 7 15 21 16 12 13 18 23 23 22 23 23 22
19 20 23 25 25 28 30 28 25 26 27 27 26 24 25 26 26 25 23 22 20 19 19 18 16 15 14 14 14 14 13 14 15 16 15 15 12 8 7 8 10 11 11 11 11 11 12 13 15 14 12 16 21 19 15 14 18 23 23 21 23 22 20
17 20 24 27 25 25 26 24 23 27 30 29 26 25 25 25 24 24 24 23 21 20 19 18 16 15 14 13 13 13 12 13 16 17 16 14 12 8 7 8 9 10 10 9 10 10 10 10 11 12 13 17 19 18 16 15 18 23 23 22 22 21 20
19 20 22 25 23 23 25 25 26 32 32 30 29 28 27 27 26 25 24 23 22 20 19 18 16 14 14 13 12 11 11 12 14 17 15 14 13 10 9 9 10 9 8 7 7 8 8 8 9 9 10 13 13 11 13 14 18 20 21 21 20 20 21
21 22 23 24 24 27 28 27 30 35 35 33 33 31 29 28 27 25 24 22 20 19 18 17 15 14 13 12 11 10 10 10 12 14 14 14 14 12 12 12 12 11 9 7 7 8 9 9 9 9 9 10 8 5 3 8 13 14 14 15 15 15 17
21 23 25 26 27 29 27 26 32 36 37 36 34 32 30 27 25 23 21 19 18 17 16 15 14 13 12 12 11 11 10 10 11 13 14 15 16 15 13 13 13 12 10 9 8 9 10 11 11 10 10 9 8 8 7 6 7 8 6 5 6 7 7
23 23 24 27 29 28 25 27 33 36 36 35 33 31 29 26 23 21 18 17 16 15 14 13 12 13 13 12 12 13 13 12 13 14 16 16 16 14 13 13 12 10 9 8 8 9 10 11 10 10 9 7 6 6 6 5 5 4 3 2 2 2 3
25 24 24 28 31 29 26 30 32 33 33 32 31 30 28 25 23 21 19 18 17 15 13 12 11 12 12 11 12 15 17 17 16 17 17 17 16 15 14 13 12 11 10 9 8 9 10 10 11 12 11 10 8 7 6 5 4 3 1 1 0 0 1
24 24 25 29 32 29 28 31 32 31 32 32 30 29 27 25 23 22 20 19 19 18 16 13 11 12 13 13 14 17 20 20 20 21 20 19 19 17 15 14 13 12 12 12 10 9 9 9 10 11 11 10 9 8 8 7 6 4 3 3 3 4 4
22 23 24 28 30 29 30 31 31 32 32 32 30 28 26 25 23 22 21 19 19 20 19 16 13 14 16 18 18 20 22 23 24 24 23 22 21 19 17 14 13 13 12 12 10 9 7 6 7 8 7 6 6 6 6 6 5 4 4 4 5 6 6
22 22 23 24 26 29 29 28 27 30 32 31 30 28 27 26 24 22 22 21 20 20 19 18 16 16 18 20 21 22 23 24 25 25 23 22 20 19 18 15 13 13 12 11 9 7 6 5 5 6 5 4 3 4 4 4 4 4 4 5 5 6 7
22 22 22 21 23 27 28 25 25 30 31 31 31 29 28 28 27 25 23 22 20 20 20 18 17 18 18 19 20 22 23 24 25 23 22 20 19 17 16 15 14 13 12 11 8 7 6 4 4 4 4 4 5 6 7 8 9 9 9 10 10 10 10
24 23 21 20 21 25 27 25 27 30 32 32 32 31 30 30 29 27 24 23 21 21 20 19 18 18 18 17 18 19 21 22 23 22 20 19 17 16 15 14 13 12 11 10 8 7 6 5 5 5 5 5 5 6 6 7 8 9 9 9 8 8 8
25 23 21 19 20 23 25 26 27 30 32 32 32 32 31 31 31 29 26 24 23 22 21 20 19 18 18 17 16 16 18 20 20 20 19 17 15 15 14 13 13 12 11 10 9 9 8 7 7 6 6 6 6 5 5 5 5 5 6 6 7 6 6
23 22 21 20 20 21 22 24 25 28 31 32 32 33 32 30 30 28 26 25 25 23 21 20 19 18 18 18 16 16 17 17 16 15 16 16 15 14 14 13 12 12 13 13 13 12 11 11 10 10 10 10 9 8 8 8 8 7 8 8 8 8 9
22 20 19 19 19 20 20 20 22 26 29 30 31 32 32 30 27 25 24 24 24 23 21 20 19 19 18 17 17 16 16 15 13 11 13 15 15 15 14 13 13 14 14 15 15 14 13 13 12 13 13 12 12 11 10 10 9 9 9 9 9 10 12
22 20 18 16 15 16 15 14 15 19 24 27 28 29 29 28 26 23 22 22 21 20 20 19 19 18 18 17 17 16 15 15 13 13 16 18 18 18 18 17 16 16 16 16 16 15 14 14 13 12 11 10 10 9 9 9 9 10 11 12 12 12 13
Wind_Direction
193 195 199 201 203 201 197 198 199 198 201 201 198 199 200 200 200 199 199 198 194 190 192 196 198 197 195 190 189 192 191 191 192 188 191 195 192 198 206 207 226 184 170 168 167 158 138 139 169 184 186 181 180 175 173 179 184 186 188 187 185 181 183
198 197 196 199 201 201 199 200 199 198 198 198 198 199 200 202 205 205 205 203 198 194 192 194 198 198 197 194 189 191 192 194 200 199 196 193 191 192 192 193 182 162 164 171 167 157 146 151 161 178 175 175 184 183 178 179 183 186 187 188 188 186 189
200 198 194 195 198 199 200 199 198 198 196 195 196 198 200 204 207 209 209 206 199 194 192 191 194 196 199 200 195 193 194 197 202 204 201 196 194 195 191 183 163 154 156 160 165 163 155 160 165 165 168 172 184 185 181 183 185 186 189 192 192 192 197
201 196 192 191 194 195 196 196 197 198 197 195 196 198 203 207 209 210 210 206 198 193 193 193 194 198 199 199 199 197 196 200 203 205 206 202 198 198 196 191 177 170 171 173 173 171 163 159 150 153 170 177 182 183 182 188 190 189 192 196 196 195 201
195 194 193 193 194 194 195 194 195 197 198 197 196 199 204 208 209 210 208 203 197 194 196 198 199 202 202 197 198 199 197 200 202 202 205 203 200 201 198 197 194 185 183 185 182 178 175 168 157 152 170 175 179 185 187 192 194 193 194 196 196 197 203
187 192 196 200 199 196 196 195 194 197 198 198 199 201 204 207 208 207 203 197 193 193 197 201 200 199 202 200 198 199 197 198 198 197 201 200 201 203 198 197 200 195 192 197 193 186 182 170 158 154 168 175 173 169 180 187 187 190 196 197 197 198 202
194 196 201 207 208 203 199 198 198 199 200 202 203 204 204 204 201 200 198 194 191 195 199 199 197 198 201 200 198 199 199 199 199 197 200 200 199 202 199 197 202 201 199 203 199 192 186 176 165 158 159 170 170 158 164 175 178 183 193 199 200 200 201
208 208 209 215 218 212 204 200 200 201 202 205 207 206 204 197 191 189 191 189 189 197 200 195 194 197 197 195 197 201 201 200 200 201 201 201 200 201 201 199 199 201 202 204 203 199 196 190 178 168 160 155 159 165 166 168 176 184 190 195 199 202 203
206 213 218 223 223 216 209 205 203 202 205 207 207 205 198 189 184 182 183 184 185 191 192 189 189 190 190 192 196 199 200 200 202 203 201 201 204 205 204 200 196 198 200 202 201 201 202 200 189 176 169 165 162 164 175 174 181 192 191 190 195 203 208
201 212 221 226 225 218 212 208 206 205 207 207 202 196 190 185 182 180 179 180 182 184 185 186 187 186 186 191 195 198 200 201 202 203 202 201 203 205 203 198 198 198 198 198 198 201 205 204 193 183 179 177 171 161 161 189 198 193 190 193 197 202 207
197 212 226 228 227 220 211 207 206 206 207 202 192 186 185 184 180 178 178 179 179 181 184 187 188 186 187 189 193 197 198 198 200 201 203 200 199 202 200 199 202 203 202 201 199 200 205 204 196 189 187 184 178 172 168 175 199 196 190 196 202 204 205
206 218 230 228 224 220 212 206 206 206 202 194 184 179 181 182 179 178 179 179 179 182 184 186 186 185 186 188 191 194 196 197 198 198 200 200 198 200 201 202 205 205 207 208 201 198 202 204 200 195 193 189 186 185 178 171 179 200 197 200 205 209 208
212 219 225 221 218 218 214 207 205 202 194 187 181 177 178 179 178 179 178 178 179 180 182 182 183 184 184 185 189 193 194 196 199 198 198 199 201 204 206 207 208 207 208 208 202 198 200 203 204 202 197 192 194 198 188 179 176 189 199 205 206 209 211
207 215 220 217 215 216 215 209 203 195 189 186 181 177 176 176 176 175 174 173 173 173 176 177 180 185 183 183 187 189 189 190 195 197 194 196 203 208 211 211 211 209 209 208 203 201 199 198 203 206 201 196 201 208 202 192 185 175 192 205 207 208 209
206 215 221 217 211 212 212 206 198 193 189 186 181 176 174 173 172 172 170 169 170 171 173 174 178 182 183 184 186 187 187 189 193 196 196 200 205 210 214 213 212 212 212 213 210 209 206 199 198 202 201 200 205 209 209 206 195 178 183 200 206 207 207
206 215 221 214 206 207 212 207 199 196 189 180 176 172 170 170 172 172 170 170 171 170 171 174 176 178 180 181 183 186 191 193 195 197 200 204 206 211 215 213 213 213 212 214 215 215 214 207 204 205 203 205 209 209 215 218 207 191 184 192 203 206 204
213 215 215 207 203 207 210 206 198 192 183 175 171 167 166 170 173 171 169 168 169 168 170 174 176 177 178 179 180 183 188 191 194 199 202 205 206 209 211 212 214 214 210 211 214 216 216 213 210 209 207 209 211 213 224 228 215 203 190 187 200 208 206
215 210 208 203 204 205 202 196 184 177 177 174 167 162 164 169 171 170 167 165 165 167 169 171 173 175 176 177 181 185 186 186 189 195 199 200 203 206 211 214 215 215 213 213 214 216 217 216 213 212 211 211 208 212 228 227 212 205 198 194 197 203 206
206 198 195 192 194 191 185 180 172 170 175 172 164 163 168 169 167 167 166 165 166 168 169 174 177 175 175 180 183 184 185 187 189 193 195 198 202 208 214 216 216 216 214 212 215 219 219 215 214 212 207 202 201 213 225 216 204 202 203 201 198 198 203
206 187 174 178 183 178 173 171 169 171 176 170 161 161 168 170 169 169 169 168 169 169 169 174 174 168 170 181 182 176 174 177 182 188 192 195 200 204 210 213 212 213 213 213 217 221 218 213 212 213 199 191 198 218 227 210 202 202 203 200 196 198 201
204 177 162 168 173 169 167 166 168 175 174 162 153 152 158 164 166 166 166 166 166 166 165 166 166 158 153 160 167 170 171 173 175 174 173 177 184 192 202 208 208 210 214 218 222 224 222 217 211 210 202 194 199 215 237 225 208 204 203 198 197 201 202
189 167 158 160 163 165 165 162 166 172 163 150 145 145 147 152 155 155 155 154 156 158 159 159 159 155 150 148 149 151 157 165 165 159 157 163 170 178 190 199 204 209 214 219 224 225 225 222 217 212 207 199 199 213 241 241 216 206 202 197 197 199 200
169 167 159 154 160 166 165 163 162 159 151 142 140 141 142 145 148 148 146 145 145 147 148 148 149 149 151 154 152 145 141 149 157 155 153 160 167 171 178 190 198 203 209 215 219 220 218 217 215 208 202 201 206 226 247 239 214 205 200 196 196 196 196
156 163 156 148 152 155 157 158 153 146 143 138 137 139 141 142 143 143 143 142 140 139 138 139 140 142 146 152 158 155 143 141 154 160 160 160 162 164 172 180 182 180 188 197 198 201 200 193 187 184 188 199 213 240 250 225 205 201 199 197 198 198 200
149 149 147 143 141 140 145 149 144 139 136 135 136 138 139 139 139 139 141 140 138 136 135 136 136 137 140 144 150 155 149 139 142 154 166 167 162 162 169 171 166 158 152 148 153 161 159 157 161 156 150 159 162 152 174 189 186 189 196 200 201 203 209
153 146 142 139 135 135 139 140 137 134 132 134 137 137 137 138 137 136 138 138 135 135 137 139 139 138 135 134 138 141 143 142 136 142 163 171 166 165 169 167 165 162 154 145 143 145 143 140 142 139 129 128 132 131 133 142 146 150 160 175 187 195 203
154 148 140 136 134 136 136 132 129 129 129 133 136 134 134 135 133 132 134 135 134 133 136 140 144 146 139 132 132 132 132 137 137 140 155 164 161 161 164 163 161 158 156 158 159 156 151 145 140 138 140 142 147 153 160 157 142 139 137 141 170 190 198
141 141 136 133 133 135 134 129 127 127 130 133 133 131 131 131 129 127 127 129 129 123 122 132 145 152 149 140 133 130 128 130 132 136 143 149 150 150 152 151 144 136 132 133 137 144 150 152 144 133 131 137 140 139 139 138 136 136 129 103 71 50 232
124 130 131 131 133 134 131 128 129 130 130 129 127 127 126 125 125 123 122 123 122 113 108 117 135 146 148 143 135 130 128 127 125 126 127 131 134 135 135 134 129 124 120 113 109 114 126 142 145 132 120 119 118 113 106 98 89 79 63 46 31 22 14
109 118 122 125 129 130 128 127 130 133 130 126 124 123 121 120 120 121 120 120 119 113 105 104 117 134 141 141 136 130 127 124 120 118 115 116 120 120 118 117 116 116 115 108 101 102 106 120 130 121 112 109 102 94 88 82 73 59 42 29 20 11 3
93 106 111 115 120 125 126 126 128 132 129 124 121 121 120 118 116 115 115 114 115 114 106 100 107 120 131 138 137 131 127 123 118 115 112 110 111 109 107 105 104 106 104 97 93 95 94 97 101 93 78 60 42 20 6 352 329 320 323 320 319 324 332
73 87 95 102 112 120 125 126 125 127 126 122 118 118 117 114 110 108 109 107 108 111 108 104 106 110 118 128 133 132 131 126 118 113 111 108 104 102 100 97 95 93 90 84 81 79 76 69 64 56 36 22 18 7 353 337 324 316 311 308 309 312 319
60 69 79 89 100 112 120 122 120 119 119 118 117 114 111 109 105 103 103 103 102 104 104 105 107 110 113 118 124 128 130 127 121 115 109 106 102 96 92 88 85 83 80 78 73 68 63 53 47 40 23 15 17 11 360 344 334 331 330 336 343 339 337
60 63 71 82 92 104 114 118 118 117 115 114 112 108 105 103 101 99 100 101 99 97 98 101 104 110 115 118 123 128 126 123 122 119 111 104 98 91 85 81 79 77 77 78 75 71 67 61 56 55 49 47 49 42 30 18 11 14 23 33 39 33 23
66 68 73 78 83 92 104 112 116 117 115 113 109 105 102 100 97 95 96 97 96 94 94 96 98 102 109 115 120 124 121 118 120 123 115 103 95 90 87 85 86 85 84 85 83 81 80 79 77 75 72 71 72 68 66 65 63 61 60 59 57 49 38
65 70 75 78 79 82 88 99 107 111 112 112 109 106 103 100 97 94 92 92 94 94 92 92 94 96 101 108 112 113 112 111 114 120 114 103 97 95 94 93 94 95 95 94 92 92 92 92 91 89 87 87 85 83 81 76 71 68 68 67 60 48 37
64 67 71 76 83 85 88 96 105 110 113 113 109 106 106 107 104 99 94 91 91 93 92 92 92 94 97 102 105 106 107 106 106 110 109 105 101 98 96 95 98 102 103 100 98 95 90 86 85 85 87 90 90 90 87 79 76 79 78 70 59 48 38